Location: ???????
(55.4697°N, 39.0333°E)
Time: 14:47:19
(UTC+00:00)

Daily predictions for brighter satellites

Satellite Brightness Start Highest point End
(mag) Time Altitude Azimuth Time Altitude Azimuth Time Altitude Azimuth
Cosmos 1340 Rocket 2.8 18:40:35 10° S 18:44:33 77° ESE 18:48:32 10° NNE
Resurs 01 Rocket 4.4 18:44:30 10° WSW 18:46:45 14° W 18:49:01 10° NW
SL-16 R/B 4.3 18:44:51 10° NNW 18:49:14 22° NNE 18:53:36 10° ENE
Okean O Rocket 4.3 18:46:45 10° WSW 18:49:18 15° W 18:51:50 10° NW
Cosmos 1656 3.8 18:44:15 10° NW 18:49:42 71° WSW 18:55:11 10° SSE
Cosmos 1833 Rocket 3.9 18:45:45 10° SSE 18:50:05 23° ESE 18:54:26 10° NE
Terra 2.4 18:47:12 10° S 18:51:50 56° W 18:56:30 10° NNW
Cosmos 1805 3.3 18:50:02 10° NNW 18:53:46 76° W 18:57:28 10° S
H-2A R/B 4.2 18:51:08 10° ESE 18:54:29 23° ENE 18:57:53 10° N
Cosmos 1743 Rocket 4.4 18:51:32 10° NNW 18:55:48 49° W 19:00:05 10° SSW
Cosmos 1766 3.8 18:53:03 10° N 18:56:40 42° ENE 19:00:15 10° SE
Cosmos 1553 Rocket 4.5 18:53:56 10° N 18:59:50 49° ENE 19:05:44 10° SE
Cosmos 1603 4.2 18:54:47 10° SW 19:00:28 68° NW 19:06:14 10° NNE
Cosmos 1428 Rocket 4.5 19:00:19 10° S 19:06:23 73° E 19:12:29 10° NNE
Cosmos 2360 4.3 19:01:29 10° NW 19:07:14 81° WSW 19:12:57 10° SSE
Okean 1 4.5 19:04:11 10° SW 19:07:53 42° WNW 19:11:39 10° N
Landsat 5 3.4 19:06:41 10° NNE 19:10:26 56° ESE 19:14:13 10° S
Cosmos 1470 3.8 19:07:36 10° N 19:10:58 31° ENE 19:14:17 10° SE
Cosmos 1151 Rocket 3.2 19:08:48 10° SSW 19:13:08 77° WNW 19:17:29 10° N
USA 281 3.4 19:07:34 10° SSE 19:14:10 75° WSW 19:20:49 10° NNW
Cosmos 1975 3.1 19:10:25 10° NNW 19:14:19 62° W 19:18:12 10° S
Meteor 1-18 Rocket 4.5 19:11:35 10° S 19:17:25 63° E 19:23:15 10° NNE
NOSS 3-3 (A) 4.1 19:12:31 10° SSW 19:17:53 50° SE 19:24:10 10° NE
MOS 1 Rocket 4.4 19:16:11 10° S 19:21:17 49° W 19:26:33 10° NNW
Cosmos 1092 Rocket 4.1 19:18:24 10° S 19:24:41 77° E 19:31:03 10° NNE
Cosmos 220 Rocket 4.1 19:23:25 10° SSW 19:27:45 82° WNW 19:32:05 10° NNE
Cosmos 1908 4.2 19:24:38 10° N 19:27:53 31° ENE 19:30:53 11° SE
ARIANE 5 R/B 2.8 19:25:29 12° SSE 19:29:28 60° ENE 19:33:44 10° N
NOSS 3-4 (A) 3.8 19:24:31 10° NW 19:31:08 80° SW 19:38:49 10° SE
NOSS 3-4 (C) 3.8 19:24:37 10° NW 19:31:14 80° SW 19:38:55 10° SE
Cosmos 1328 Rocket 3.5 19:28:34 10° S 19:32:53 78° E 19:37:12 10° NNE
CZ-2C R/B 4.3 19:29:38 10° NNE 19:33:50 38° E 19:37:29 13° SSE
Cosmos 1140 Rocket 4.2 19:34:28 11° S 19:39:00 38° ESE 19:43:48 10° NE
OPS 6432 4.3 19:39:07 10° NW 19:42:24 76° NE 19:45:18 11° ESE
Cosmos 1515 Rocket 3.9 19:40:01 13° SSE 19:43:43 51° E 19:47:55 10° NNE
Cosmos 1697 Rocket 2.9 19:38:55 10° NW 19:44:30 65° WSW 19:49:25 13° SSE
Spot 4 4.5 19:40:14 11° SE 19:44:32 48° ENE 19:49:08 10° N
Cosmos 2322 Rocket 4.1 19:39:46 10° NNW 19:44:32 27° NNE 19:49:19 10° E
Cosmos 1626 2.1 19:45:29 10° SSW 19:48:41 62° WNW 19:51:54 10° N
Cosmos 1470 Rocket 3.9 19:46:13 10° NNW 19:50:39 64° W 19:54:36 12° S
NOSS 3-3 (C) 3.9 19:45:52 10° SW 19:51:26 70° SE 19:58:08 10° NE
PSLV R/B 4.5 19:47:56 10° NNE 19:51:48 41° E 19:54:49 15° SSE
Cosmos 1869 Rocket 4.1 19:47:59 10° N 19:52:16 51° ENE 19:55:52 14° SSE
Cosmos 1633 Rocket 4.1 19:49:24 10° NNW 19:53:33 41° W 19:57:40 10° SSW
Cosmos 1707 3.3 19:51:54 16° SSE 19:54:29 39° E 19:57:54 10° NNE
Cosmos 1980 Rocket 2.3 19:49:00 10° NNW 19:54:45 85° ENE 19:59:53 13° SE
Cosmos 1300 4.4 19:52:48 10° NNE 19:55:40 22° ENE 19:58:31 10° ESE
USA 234 3.5 19:50:49 10° E 19:57:23 79° N 20:03:57 10° W
Cosmos 2333 Rocket 4.2 19:54:49 10° NNW 19:59:38 27° NNE 20:04:27 10° E
Cosmos 1441 Rocket 3.4 19:57:08 10° N 20:00:39 53° ENE 20:03:19 16° SE
Cosmos 44 Rocket 4.3 19:59:14 10° WNW 20:03:39 34° WSW 20:07:10 14° S
Lacrosse 5 rocket 1.4 20:01:44 10° WNW 20:05:53 58° SSW 20:09:28 13° SE
Cosmos 540 Rocket 3.8 20:01:09 10° NNW 20:06:18 61° ENE 20:10:59 12° SE
Cosmos 1763 Rocket 3.6 20:03:01 10° NNW 20:08:23 80° ENE 20:12:54 14° SSE
Cosmos 468 Rocket 4.4 20:05:35 10° NNW 20:10:52 62° ENE 20:15:39 12° SE
Cosmos 1066 Rocket 4.4 20:05:32 10° SSW 20:11:23 80° WNW 20:17:18 10° NNE
Meteor 2-12 Rocket 4.5 20:06:04 11° S 20:12:04 87° E 20:18:17 10° NNE
Cosmos 1842 3.0 20:10:07 15° S 20:13:03 80° E 20:16:44 10° NNE
Cosmos 1674 2.4 20:11:20 15° SSW 20:14:10 88° WNW 20:17:40 10° NNE
Cosmos 1933 Rocket 3.7 20:11:15 10° NNW 20:15:36 67° W 20:19:05 16° S
GP-B 4.2 20:16:27 10° NNE 20:20:26 32° E 20:23:40 14° SE
Cosmos 407 Rocket 3.8 20:16:11 14° S 20:20:32 53° ESE 20:25:37 10° NE
MINOTAUR 4 R/B 3.5 20:18:27 10° NNE 20:21:26 84° WNW 20:23:36 17° SSW
Cosmos 2369 3.7 20:16:25 10° NW 20:22:10 82° WSW 20:26:58 15° SSE
Cosmos 1818 3.9 20:16:43 10° WSW 20:22:11 71° NW 20:27:42 10° NE
Cosmos 1607 4.1 20:16:56 10° SSW 20:23:19 66° SE 20:29:46 10° NE
KORONAS-FOTON 3.7 20:20:40 16° SSW 20:23:35 87° WNW 20:27:19 10° NNE
ATLAS 2AS CENTAUR R/B 3.7 20:21:00 10° WNW 20:27:51 50° NNE 20:34:25 10° E
H-2A R/B 2.8 20:25:54 17° S 20:29:04 63° WSW 20:33:22 10° NNW
Cosmos 1455 4.4 20:30:15 10° NNE 20:32:24 15° ENE 20:34:33 10° E
Cosmos 2219 Rocket 4.2 20:27:59 10° NNW 20:32:43 26° NNE 20:37:27 10° E
Cosmos 1833 Rocket 2.8 20:27:46 10° SW 20:33:24 83° NW 20:39:04 10° NNE
RESURS DK-1 4.4 20:30:10 10° NNW 20:33:36 25° NE 20:37:01 10° E
SL-16 R/B 2.8 20:29:00 10° NNW 20:34:36 55° NE 20:40:10 10° SE
COSMOS 2406 4.0 20:33:19 16° SSE 20:37:14 37° ESE 20:42:28 10° NE
ALOS 2 2.6 20:34:53 18° SSE 20:38:09 88° WSW 20:42:34 10° NNW
Meteor 1-12 Rocket 4.4 20:33:07 10° NNW 20:39:04 83° ENE 20:43:55 16° SSE
S3M 4.2 20:32:53 10° NNW 20:39:16 72° W 20:44:31 16° S
Cosmos 1758 3.3 20:40:19 10° N 20:44:10 71° ENE 20:46:48 19° SSE
Cosmos 1470 4.1 20:43:03 10° NNW 20:46:17 29° W 20:48:57 13° SSW
Cosmos 2082 Rocket 2.6 20:42:09 16° S 20:46:27 49° ESE 20:51:56 10° NE
Cosmos 2360 Rocket 3.4 20:41:25 10° NNW 20:46:48 41° NE 20:52:09 10° ESE
Cosmos 2251 Rocket 3.5 20:44:25 14° SSW 20:49:00 77° ESE 20:54:19 10° NNE
Meteor 2-10 Rocket 3.8 20:47:28 10° NNW 20:53:20 84° WSW 20:57:48 17° S
Cosmos 1707 Rocket 4.2 20:51:02 18° SSE 20:54:02 46° E 20:58:19 10° NNE
GEOS 3 Rocket 3.6 20:49:00 10° NE 20:54:15 86° SE 20:59:24 10° SW
SL-08 ROCKET BODY 4.5 20:50:51 15° S 20:56:07 88° WNW 21:02:19 10° N
Cosmos 724 4.3 20:53:24 10° SW 20:59:18 87° SE 21:05:10 10° NE
Cosmos 2315 Rocket 4.1 20:53:24 10° NNW 20:59:41 73° W 21:04:44 17° S
Meteor 1-13 Rocket 4.4 20:57:59 14° SSW 21:03:12 77° WNW 21:09:03 10° NNE
ARIANE 5 R/B 4.4 21:02:57 10° SW 21:06:14 21° W 21:09:35 10° NW
Okean 3 4.2 21:05:01 18° SSE 21:07:39 40° E 21:11:31 10° NNE
Cosmos 2237 4.2 21:03:36 10° NW 21:09:23 90° SW 21:14:36 13° SSE
H-2A R/B 2.7 21:05:47 10° NNE 21:10:02 44° E 21:12:54 19° SSE
Cosmos 2285 Rocket 4.2 21:04:24 10° SW 21:10:44 73° WNW 21:17:08 10° NNE
Meteor 1-4 Rocket 4.2 21:10:32 12° SE 21:11:59 17° E 21:13:59 10° NE
BREEZE-M DEB (TANK) 4.2 21:15:48 10° SW 21:19:05 42° SSE 21:28:14 10° E
Cosmos 1908 Rocket 4.2 21:15:17 10° N 21:19:37 51° ENE 21:23:12 14° SSE
Cosmos 2278 3.7 21:14:44 10° NW 21:20:27 72° WSW 21:25:10 15° SSE
Cosmos 1140 Rocket 4.4 21:15:38 10° SW 21:20:41 48° NW 21:25:46 10° NNE
Cosmos 1346 Rocket 2.7 21:17:33 10° NNW 21:21:28 75° WSW 21:23:58 21° S
SL-24 R/B 4.4 21:18:25 10° NNE 21:23:09 82° ESE 21:27:08 18° SSW
Cosmos 1733 Rocket 3.3 21:18:57 10° NNW 21:23:15 60° W 21:26:12 19° S
Cosmos 2266 Rocket 4.5 21:17:38 12° SSW 21:23:20 57° WNW 21:29:36 10° N
Cosmos 2322 Rocket 2.3 21:23:46 10° NNW 21:29:28 78° NE 21:35:09 10° SE
Helios 1A Rocket 4.2 21:26:27 10° SE 21:29:56 33° ENE 21:33:24 10° N
Cosmos 1300 3.3 21:27:11 10° NNW 21:30:34 40° W 21:32:38 20° SSW
Cosmos 1400 Rocket 2.9 21:27:50 18° SSW 21:30:40 69° WNW 21:34:38 10° N
Cosmos 841 Rocket 3.5 21:26:45 10° NNW 21:31:59 70° WSW 21:36:05 17° SSE
BREEZE-M DEB (TANK) 1.6 21:28:48 10° WSW 21:32:32 49° S 21:34:34 10° E
Meteor 1-21 4.3 21:28:43 18° S 21:33:08 80° ESE 21:38:57 10° NNE
Cosmos 1980 Rocket 3.7 21:33:45 10° NW 21:38:07 23° WSW 21:41:37 13° SSW
USA 234 3.2 21:33:54 10° ESE 21:40:30 79° SSW 21:47:05 10° WNW
Orbus 7S? 2.5 21:37:29 10° WSW 21:40:54 85° SSE 21:43:36 10° ENE
Lacrosse 5 rocket 3.0 21:40:52 10° W 21:43:32 17° SW 21:44:16 16° SW
Okean 1-7 3.3 21:41:35 19° S 21:44:35 60° E 21:48:52 10° NNE
Cosmos 2333 Rocket 2.4 21:39:05 10° NNW 21:44:50 75° NE 21:50:35 10° SE
Cosmos 2228 Rocket 3.5 21:41:50 17° SSW 21:45:16 59° WNW 21:49:47 10° N
Cosmos 1242 Rocket 4.2 21:47:51 11° SE 21:49:32 17° E 21:51:29 10° NE
Cosmos 1356 Rocket 3.6 21:51:21 18° SSW 21:54:18 69° WNW 21:58:30 10° N
Cosmos 1953 2.2 21:50:28 10° NNW 21:54:23 76° W 21:57:01 19° S
GP-B 4.1 21:53:36 10° NNW 21:57:42 38° W 22:00:59 15° SW
SL-27 R/B 4.2 21:56:27 11° SE 21:57:46 15° ESE 21:59:26 10° ENE
Genesis I 3.9 21:59:24 20° S 22:01:08 32° SE 22:04:21 10° ENE
SL-14 R/B 4.3 22:01:00 14° SW 22:03:56 37° WNW 22:07:30 10° N
Cosmos 1703 Rocket 3.8 22:01:24 17° S 22:04:41 64° E 22:09:07 10° NNE
Cosmos 1300 Rocket 3.8 22:01:51 10° N 22:06:10 63° ENE 22:10:02 12° SSE
Aureole 3 3.5 22:04:37 19° SW 22:06:35 45° WNW 22:09:56 10° N
Cosmos 1455 2.1 22:03:49 10° NNW 22:07:15 61° W 22:09:28 20° S
Cosmos 1862 Rocket 4.2 22:05:04 15° SW 22:08:24 48° WNW 22:12:40 10° N
Cosmos 676 Rocket 4.3 22:04:33 13° SW 22:09:15 70° WNW 22:14:36 10° NNE
Cosmos 1954 Rocket 4.5 22:05:17 12° SW 22:10:14 60° WNW 22:15:31 10° NNE
RESURS DK-1 2.3 22:07:40 10° NW 22:11:45 72° WSW 22:15:33 11° SSE
SJ 16-02 2.5 22:08:51 14° SSE 22:11:56 31° ESE 22:15:46 10° NE
Cosmos 1814 Rocket 4.0 22:09:01 10° NNW 22:14:16 81° WSW 22:19:31 10° SSE
Cosmos 2219 Rocket 2.4 22:11:52 10° NNW 22:17:33 76° NE 22:23:14 10° SE
SL-16 R/B 2.8 22:13:21 10° NW 22:18:35 39° WSW 22:22:42 16° S
ATLAS 2AS CENTAUR R/B 2.6 22:12:19 10° NW 22:19:17 82° SW 22:25:58 10° SE
COSMOS 2406 3.7 22:15:41 10° SW 22:21:22 58° NW 22:27:04 10° NNE
Cosmos 2322 4.3 22:21:55 10° NNW 22:27:37 61° NE 22:33:14 10° SE
Cosmos 2082 Rocket 3.1 22:25:08 10° WSW 22:30:38 46° NW 22:36:09 10° NNE
Cosmos 2360 Rocket 2.4 22:25:29 10° NW 22:31:03 57° WSW 22:36:34 10° SSE
Cosmos 2333 4.2 22:27:33 10° NW 22:33:16 71° WSW 22:39:00 10° SSE
Cosmos 839 Rocket 4.3 22:27:15 10° NW 22:34:42 65° SW 22:40:57 10° SSE
Cosmos 2242 Rocket 4.2 22:30:58 13° S 22:34:50 53° E 22:39:15 10° NNE
Cosmos 1745 Rocket 4.1 22:30:04 15° SSW 22:35:28 86° W 22:41:52 10° N
Cosmos 405 Rocket 4.3 22:33:45 10° N 22:37:03 32° ENE 22:40:23 10° SE
Okean 2 Rocket 4.4 22:33:16 10° N 22:37:23 37° ENE 22:41:31 10° SE
SL-16 R/B 4.0 22:31:55 10° ESE 22:37:38 39° NE 22:43:21 10° N
CZ-2C R/B 3.4 22:34:59 10° SE 22:40:00 52° ENE 22:45:06 10° N
Okean 2 4.0 22:38:45 14° SW 22:41:51 43° WNW 22:45:42 10° N
Meteor 1-4 Rocket 3.1 22:42:38 15° SW 22:44:41 35° WNW 22:47:30 10° N
USA 267 3.6 22:38:40 10° ENE 22:45:01 51° SE 22:51:04 11° SW
H-2A R/B 3.5 22:41:42 10° N 22:45:37 31° WNW 22:49:29 10° WSW
Cosmos 2237 Rocket 3.7 22:45:38 10° NNW 22:51:01 40° NE 22:56:21 10° ESE
Cosmos 1315 Rocket 3.4 22:49:16 14° SW 22:52:26 46° WNW 22:56:17 10° N
Cosmos 1570 Rocket 4.0 22:47:16 10° NNW 22:52:37 87° WSW 22:57:58 10° SSE
COSMOS 2428 3.0 22:48:21 10° NNW 22:54:03 73° NE 22:59:45 10° SE
Cosmos 1782 Rocket 4.2 22:53:34 10° NNW 22:57:39 39° W 23:01:04 14° SSW
Cosmos 968 Rocket 3.5 22:56:50 13° SSW 23:01:24 85° WNW 23:06:36 10° NNE
H-2A R/B 4.3 22:58:19 10° NNE 23:02:09 42° E 23:05:56 10° S
Helios 1A Rocket 3.7 23:01:28 14° SSW 23:04:17 32° W 23:07:45 10° NNW
Cosmos 2208 Rocket 4.0 22:59:30 10° NNW 23:04:51 89° WSW 23:10:04 10° SSE
SL-4 R/B 3.1 23:02:20 14° SSW 23:05:24 30° SSE 23:09:15 10° E
Cosmos 2098 Rocket 3.9 23:00:49 10° NNW 23:06:23 81° W 23:12:46 10° S
Cosmos 1892 4.3 23:05:58 10° SSE 23:08:54 25° E 23:11:51 10° NNE
EXPRESS MD2 3.9 23:10:58 15° SSW 23:12:41 26° SSE 23:16:00 10° ESE
Cosmos 2322 Rocket 3.4 23:08:25 10° NW 23:12:59 25° WSW 23:17:16 11° SSW
MOZ.5/SAFIR/RUBIN 5/SL-8 4.1 23:10:18 10° S 23:14:50 49° W 23:19:24 10° NNW
Resurs 1-4 Rocket 2.8 23:09:55 10° NNE 23:15:03 51° E 23:20:10 10° S
Cosmos 1408 2.3 23:15:08 14° SSW 23:17:35 55° WNW 23:20:32 10° N
Meteor 1-24 Rocket 4.0 23:14:01 10° S 23:20:01 77° E 23:25:55 10° NNE
Cosmos 1242 Rocket 3.1 23:19:14 12° SW 23:21:34 32° WNW 23:24:11 10° N
Nadezhda 3 Rocket 4.4 23:15:58 10° N 23:22:20 67° ENE 23:28:36 10° SSE
CZ-2D R/B 2.7 23:17:30 10° NNE 23:22:54 56° E 23:28:12 10° S
USA 234 3.7 23:18:03 10° SSE 23:24:06 39° SW 23:30:11 10° WNW
Cosmos 2297 Rocket 4.3 23:22:54 10° SE 23:26:39 19° E 23:30:25 10° ENE
OPS 8737 4.4 23:24:11 10° WNW 23:27:00 43° SW 23:29:54 10° SSE
Cosmos 2333 Rocket 3.3 23:23:55 10° NW 23:28:39 27° WSW 23:33:22 10° SSW
CRYOSAT 2 4.4 23:24:24 10° N 23:29:19 89° E 23:34:14 10° S
SL-27 R/B 2.7 23:27:58 11° SW 23:30:31 40° WNW 23:33:12 10° NNE
Cosmos 1703 3.2 23:29:18 11° SSW 23:32:55 66° WNW 23:36:38 10° N
IDEFIX/ARIANE 42P 2.7 23:31:49 10° NNE 23:37:08 89° ESE 23:42:24 10° SSW
Genesis I 3.8 23:33:54 10° WSW 23:37:20 47° NNW 23:40:51 10° NE
Cosmos 1455 Rocket 4.4 23:35:13 10° N 23:39:25 42° ENE 23:43:37 10° SE
NOSS 5 (C) 4.1 23:37:08 10° NW 23:40:25 78° SW 23:43:34 10° SE
ADEOS II 2.6 23:38:59 10° NNE 23:44:11 57° ESE 23:49:20 10° S
RESURS DK-1 4.4 23:47:16 10° W 23:48:44 12° WSW 23:50:11 10° WSW
CZ-4C R/B 4.2 23:47:22 10° SE 23:49:34 13° ESE 23:51:56 10° E
SJ 16-02 2.1 23:46:04 10° SW 23:50:12 43° NW 23:54:21 10° NNE
Cosmos 1825 2.2 23:49:18 10° S 23:52:41 65° E 23:56:07 10° NNE
Cosmos 2181 Rocket 4.5 23:46:59 10° NNW 23:52:59 46° W 23:58:52 10° SSW
Cosmos 1674 Rocket 3.6 23:51:04 10° SSW 23:55:30 86° WNW 23:59:56 10° NNE
